{"data":{"norad_id":64380,"intl_designator":"2025-127L","name":"STARLINK-11744 [DTC]","alt_names":[],"object_type":"PAYLOAD","status":"ACTIVE","operator":null,"country":"US","launch_date":"2025-06-13","launch_site_code":"AFETR","launch_vehicle":null,"mission":null,"orbit_class":"UNKNOWN","rcs_meters":null,"size_class":null,"mass_kg":null,"dimensions":null,"purposes":["comms"],"wikipedia_slug":null,"has_3d_model":false,"image_url":null,"decayed_at":null,"tle_current":{"epoch":"2026-09-20T12:37:51.918240Z","epoch_age_seconds":132485,"freshness":"FRESH","line1":"1 64380U 25127L   26263.52629535  .00166999  00000+0  12695-2 0  9998","line2":"2 64380  43.0006 350.2555 0001368 241.8972 118.1758 15.71017208 74141","mean_motion":15.71017208,"eccentricity":0.0001368,"inclination_deg":43.0006,"raan_deg":350.2555,"arg_perigee_deg":241.8972,"mean_anomaly_deg":118.1758,"bstar":0.0012695,"rev_number":7414,"period_min":91.66035818495,"perigee_km":355.06738716558,"apogee_km":356.90984393399,"semimajor_km":6734.1256155498,"source":"CELESTRAK","updated_at":"2026-09-21T09:00:35.323755Z"}}}